Time,TemperatureF,DewpointF,PressureIn,WindDirection,WindDirectionDegrees,WindSpeedMPH,WindSpeedGustMPH,Humidity,HourlyPrecipIn,Conditions,Clouds,dailyrainin,SoftwareType,DateUTC
2013-04-21 00:01:00,58.7,37.3,30.02,SE,135,4.3,6.3,45,0.00,,,0.00,WUHU216HW,2013-04-21 05:01:00,
2013-04-21 00:06:00,58.7,37.3,30.02,SE,135,4.9,6.9,45,0.00,,,0.00,WUHU216HW,2013-04-21 05:06:00,
2013-04-21 00:11:00,58.5,37.2,30.02,SE,135,3.4,6.9,45,0.00,,,0.00,WUHU216HW,2013-04-21 05:11:00,
2013-04-21 00:16:00,58.3,37.0,30.01,SE,135,4.7,4.9,45,0.00,,,0.00,WUHU216HW,2013-04-21 05:16:00,
2013-04-21 00:21:00,58.1,36.8,30.01,SE,135,4.9,6.5,45,0.00,,,0.00,WUHU216HW,2013-04-21 05:21:00,
2013-04-21 00:26:00,58.0,36.6,30.01,SSE,158,3.6,6.5,45,0.00,,,0.00,WUHU216HW,2013-04-21 05:26:00,
2013-04-21 00:31:00,57.8,37.1,30.01,ESE,113,4.3,4.9,46,0.00,,,0.00,WUHU216HW,2013-04-21 05:31:00,
2013-04-21 00:36:00,57.6,36.9,30.01,SE,135,3.8,6.9,46,0.00,,,0.00,WUHU216HW,2013-04-21 05:36:00,
2013-04-21 00:41:00,57.2,36.5,30.01,SE,135,4.7,6.9,46,0.00,,,0.00,WUHU216HW,2013-04-21 05:41:00,
2013-04-21 00:46:00,57.2,37.2,30.01,SE,135,2.5,5.4,47,0.00,,,0.00,WUHU216HW,2013-04-21 05:46:00,
2013-04-21 00:51:00,56.9,36.8,30.01,SE,135,4.0,4.9,47,0.00,,,0.00,WUHU216HW,2013-04-21 05:51:00,
2013-04-21 00:56:00,56.7,36.6,30.00,SE,135,4.0,4.9,47,0.00,,,0.00,WUHU216HW,2013-04-21 05:56:00,
2013-04-21 01:01:00,56.5,36.5,30.00,ESE,113,3.4,6.0,47,0.00,,,0.00,WUHU216HW,2013-04-21 06:01:00,
2013-04-21 01:06:00,56.5,37.0,30.00,SSE,158,4.7,6.0,48,0.00,,,0.00,WUHU216HW,2013-04-21 06:06:00,
2013-04-21 01:11:00,56.3,36.8,30.00,SE,135,5.8,6.9,48,0.00,,,0.00,WUHU216HW,2013-04-21 06:11:00,
2013-04-21 01:16:00,56.3,36.8,30.00,SSE,158,3.6,6.9,48,0.00,,,0.00,WUHU216HW,2013-04-21 06:16:00,
2013-04-21 01:21:00,56.2,36.6,30.01,ESE,113,4.9,4.9,48,0.00,,,0.00,WUHU216HW,2013-04-21 06:21:00,
2013-04-21 01:26:00,56.2,37.3,30.01,SE,135,4.5,4.9,49,0.00,,,0.00,WUHU216HW,2013-04-21 06:26:00,
2013-04-21 01:31:00,56.2,37.3,30.01,SE,135,4.5,5.4,49,0.00,,,0.00,WUHU216HW,2013-04-21 06:31:00,
2013-04-21 01:36:00,56.0,37.1,30.01,SE,135,5.4,5.6,49,0.00,,,0.00,WUHU216HW,2013-04-21 06:36:00,
2013-04-21 01:41:00,55.8,36.9,30.01,SE,135,5.1,5.6,49,0.00,,,0.00,WUHU216HW,2013-04-21 06:41:00,
2013-04-21 01:46:00,55.8,37.4,30.01,SE,135,5.1,8.1,50,0.00,,,0.00,WUHU216HW,2013-04-21 06:46:00,
2013-04-21 01:51:00,55.8,37.4,30.00,SSE,158,4.0,8.1,50,0.00,,,0.00,WUHU216HW,2013-04-21 06:51:00,
2013-04-21 01:56:00,55.6,37.7,30.01,SSE,158,4.5,6.9,51,0.00,,,0.00,WUHU216HW,2013-04-21 06:56:00,
2013-04-21 02:01:00,55.4,37.5,30.01,SSE,158,4.3,5.4,51,0.00,,,0.00,WUHU216HW,2013-04-21 07:01:00,
2013-04-21 02:06:00,55.1,37.7,30.01,South,180,4.7,5.6,52,0.00,,,0.00,WUHU216HW,2013-04-21 07:06:00,
2013-04-21 02:11:00,54.9,38.0,30.01,SSE,158,4.0,5.8,53,0.00,,,0.00,WUHU216HW,2013-04-21 07:11:00,
2013-04-21 02:16:00,54.7,37.8,30.00,SE,135,3.1,5.8,53,0.00,,,0.00,WUHU216HW,2013-04-21 07:16:00,
2013-04-21 02:21:00,54.5,38.2,30.00,SSE,158,4.3,5.4,54,0.00,,,0.00,WUHU216HW,2013-04-21 07:21:00,
2013-04-21 02:26:00,54.4,38.0,30.00,SSE,158,4.5,6.0,54,0.00,,,0.00,WUHU216HW,2013-04-21 07:26:00,
2013-04-21 02:31:00,54.2,37.8,30.00,SSE,158,4.0,6.0,54,0.00,,,0.00,WUHU216HW,2013-04-21 07:31:00,
2013-04-21 02:36:00,54.0,38.2,30.00,SSE,158,4.5,5.4,55,0.00,,,0.00,WUHU216HW,2013-04-21 07:36:00,
2013-04-21 02:41:00,53.8,38.0,30.00,SE,135,3.8,5.4,55,0.00,,,0.00,WUHU216HW,2013-04-21 07:41:00,
2013-04-21 02:46:00,53.6,37.8,30.00,SE,135,2.5,4.7,55,0.00,,,0.00,WUHU216HW,2013-04-21 07:46:00,
2013-04-21 02:51:00,53.5,38.1,30.00,SSE,158,2.5,4.7,56,0.00,,,0.00,WUHU216HW,2013-04-21 07:51:00,
2013-04-21 02:56:00,53.3,37.9,30.00,SE,135,3.6,4.7,56,0.00,,,0.00,WUHU216HW,2013-04-21 07:56:00,
2013-04-21 03:01:00,53.3,37.9,30.00,SSE,158,3.1,5.4,56,0.00,,,0.00,WUHU216HW,2013-04-21 08:01:00,
2013-04-21 03:06:00,53.3,38.4,30.00,SSE,158,4.0,5.4,57,0.00,,,0.00,WUHU216HW,2013-04-21 08:06:00,
2013-04-21 03:11:00,53.1,38.3,30.01,SSE,158,3.1,4.7,57,0.00,,,0.00,WUHU216HW,2013-04-21 08:11:00,
2013-04-21 03:16:00,52.9,38.5,30.01,SSE,158,4.3,4.5,58,0.00,,,0.00,WUHU216HW,2013-04-21 08:16:00,
2013-04-21 03:21:00,52.9,39.0,30.01,South,180,3.4,4.5,59,0.00,,,0.00,WUHU216HW,2013-04-21 08:21:00,
2013-04-21 03:26:00,52.7,38.8,30.02,SSE,158,2.0,4.5,59,0.00,,,0.00,WUHU216HW,2013-04-21 08:26:00,
2013-04-21 03:31:00,52.6,38.6,30.02,SSE,158,3.1,4.7,59,0.00,,,0.00,WUHU216HW,2013-04-21 08:31:00,
2013-04-21 03:36:00,52.6,38.6,30.02,SSE,158,2.0,4.9,59,0.00,,,0.00,WUHU216HW,2013-04-21 08:36:00,
2013-04-21 03:41:00,52.6,39.1,30.02,SE,135,2.0,4.9,60,0.00,,,0.00,WUHU216HW,2013-04-21 08:41:00,
2013-04-21 03:46:00,52.4,39.3,30.02,SE,135,1.3,3.8,61,0.00,,,0.00,WUHU216HW,2013-04-21 08:46:00,
2013-04-21 03:51:00,52.2,39.2,30.03,ESE,113,1.8,3.8,61,0.00,,,0.00,WUHU216HW,2013-04-21 08:51:00,
2013-04-21 03:56:00,52.2,39.2,30.03,SE,135,1.8,3.4,61,0.00,,,0.00,WUHU216HW,2013-04-21 08:56:00,
2013-04-21 04:01:00,52.0,39.0,30.03,SSE,158,2.7,3.6,61,0.00,,,0.00,WUHU216HW,2013-04-21 09:01:00,
2013-04-21 04:06:00,52.0,39.3,30.04,SE,135,1.8,3.6,62,0.00,,,0.00,WUHU216HW,2013-04-21 09:06:00,
2013-04-21 04:11:00,51.8,39.2,30.04,East,90,1.6,2.7,62,0.00,,,0.00,WUHU216HW,2013-04-21 09:11:00,
2013-04-21 04:16:00,51.7,39.0,30.03,SE,135,1.8,2.5,62,0.00,,,0.00,WUHU216HW,2013-04-21 09:16:00,
2013-04-21 04:21:00,51.7,39.0,30.03,ESE,113,1.8,2.5,62,0.00,,,0.00,WUHU216HW,2013-04-21 09:21:00,
2013-04-21 04:26:00,51.5,39.2,30.04,SE,135,1.3,3.4,63,0.00,,,0.00,WUHU216HW,2013-04-21 09:26:00,
2013-04-21 04:31:00,51.3,39.5,30.04,ESE,113,2.0,3.4,64,0.00,,,0.00,WUHU216HW,2013-04-21 09:31:00,
2013-04-21 04:36:00,50.9,40.0,30.04,East,90,2.2,2.7,66,0.00,,,0.00,WUHU216HW,2013-04-21 09:36:00,
2013-04-21 04:41:00,50.4,39.4,30.04,ESE,113,1.3,2.7,66,0.00,,,0.00,WUHU216HW,2013-04-21 09:41:00,
2013-04-21 04:46:00,50.2,39.2,30.04,ESE,113,0.7,2.2,66,0.00,,,0.00,WUHU216HW,2013-04-21 09:46:00,
2013-04-21 04:51:00,50.0,39.5,30.04,ESE,113,0.9,1.1,67,0.00,,,0.00,WUHU216HW,2013-04-21 09:51:00,
2013-04-21 04:56:00,50.0,39.5,30.04,East,90,1.1,1.1,67,0.00,,,0.00,WUHU216HW,2013-04-21 09:56:00,
2013-04-21 05:01:00,49.9,39.3,30.04,East,90,0.7,1.1,67,0.00,,,0.00,WUHU216HW,2013-04-21 10:01:00,
2013-04-21 05:06:00,49.7,39.5,30.04,ESE,113,1.6,1.8,68,0.00,,,0.00,WUHU216HW,2013-04-21 10:06:00,
2013-04-21 05:11:00,49.5,39.3,30.04,ESE,113,1.6,1.8,68,0.00,,,0.00,WUHU216HW,2013-04-21 10:11:00,
2013-04-21 05:16:00,49.5,39.3,30.05,ESE,113,1.8,1.8,68,0.00,,,0.00,WUHU216HW,2013-04-21 10:16:00,
2013-04-21 05:21:00,49.5,39.3,30.05,SE,135,1.8,2.5,68,0.00,,,0.00,WUHU216HW,2013-04-21 10:21:00,
2013-04-21 05:26:00,49.1,39.8,30.04,East,90,1.6,2.5,70,0.00,,,0.00,WUHU216HW,2013-04-21 10:26:00,
2013-04-21 05:31:00,48.8,39.8,30.04,East,90,1.8,2.0,71,0.00,,,0.00,WUHU216HW,2013-04-21 10:31:00,
2013-04-21 05:36:00,48.4,39.8,30.05,East,90,1.6,2.5,72,0.00,,,0.00,WUHU216HW,2013-04-21 10:36:00,
2013-04-21 05:41:00,48.2,39.6,30.05,East,90,1.6,2.5,72,0.00,,,0.00,WUHU216HW,2013-04-21 10:41:00,
2013-04-21 05:46:00,48.2,39.6,30.05,East,90,1.3,1.8,72,0.00,,,0.00,WUHU216HW,2013-04-21 10:46:00,
2013-04-21 05:51:00,48.2,39.3,30.05,East,90,1.1,1.6,71,0.00,,,0.00,WUHU216HW,2013-04-21 10:51:00,
2013-04-21 05:56:00,48.2,39.3,30.05,East,90,1.1,1.6,71,0.00,,,0.00,WUHU216HW,2013-04-21 10:56:00,
2013-04-21 06:01:00,48.1,39.4,30.05,ESE,113,1.3,1.8,72,0.00,,,0.00,WUHU216HW,2013-04-21 11:01:00,
2013-04-21 06:06:00,47.9,39.6,30.05,ESE,113,1.3,1.8,73,0.00,,,0.00,WUHU216HW,2013-04-21 11:06:00,
2013-04-21 06:11:00,47.9,40.0,30.05,ESE,113,1.3,2.0,74,0.00,,,0.00,WUHU216HW,2013-04-21 11:11:00,
2013-04-21 06:16:00,47.7,40.2,30.05,East,90,1.8,2.0,75,0.00,,,0.00,WUHU216HW,2013-04-21 11:16:00,
2013-04-21 06:21:00,47.5,40.0,30.06,East,90,1.3,2.0,75,0.00,,,0.00,WUHU216HW,2013-04-21 11:21:00,
2013-04-21 06:26:00,47.3,39.8,30.05,ESE,113,1.8,2.0,75,0.00,,,0.00,WUHU216HW,2013-04-21 11:26:00,
2013-04-21 06:32:00,47.2,39.6,30.05,East,90,2.0,2.5,75,0.00,,,0.00,WUHU216HW,2013-04-21 11:32:00,
2013-04-21 06:36:00,47.0,39.4,30.05,East,90,1.6,2.5,75,0.00,,,0.00,WUHU216HW,2013-04-21 11:36:00,
2013-04-21 06:41:00,47.0,39.4,30.06,ESE,113,1.3,2.0,75,0.00,,,0.00,WUHU216HW,2013-04-21 11:41:00,
2013-04-21 06:46:00,46.8,39.3,30.05,ESE,113,2.2,2.5,75,0.00,,,0.00,WUHU216HW,2013-04-21 11:46:00,
2013-04-21 06:52:00,46.4,39.3,30.06,East,90,2.5,2.5,76,0.00,,,0.00,WUHU216HW,2013-04-21 11:52:00,
2013-04-21 06:57:00,46.4,39.3,30.06,ESE,113,2.5,2.9,76,0.00,,,0.00,WUHU216HW,2013-04-21 11:57:00,
2013-04-21 07:02:00,46.4,39.7,30.06,ESE,113,3.1,3.6,77,0.00,,,0.00,WUHU216HW,2013-04-21 12:02:00,
2013-04-21 07:07:00,46.6,39.8,30.07,East,90,3.1,3.6,77,0.00,,,0.00,WUHU216HW,2013-04-21 12:07:00,
2013-04-21 07:12:00,46.8,40.0,30.07,East,90,1.8,3.4,77,0.00,,,0.00,WUHU216HW,2013-04-21 12:12:00,
2013-04-21 07:17:00,47.2,40.3,30.07,East,90,1.1,3.1,77,0.00,,,0.00,WUHU216HW,2013-04-21 12:17:00,
2013-04-21 07:22:00,47.5,40.6,30.08,ENE,68,2.0,2.2,77,0.00,,,0.00,WUHU216HW,2013-04-21 12:22:00,
2013-04-21 07:27:00,47.9,41.7,30.08,ENE,68,4.0,4.9,79,0.00,,,0.00,WUHU216HW,2013-04-21 12:27:00,
2013-04-21 07:32:00,48.1,42.1,30.08,East,90,3.6,5.8,80,0.00,,,0.00,WUHU216HW,2013-04-21 12:32:00,
2013-04-21 07:36:00,48.4,42.5,30.09,ENE,68,3.4,5.8,80,0.00,,,0.00,WUHU216HW,2013-04-21 12:36:00,
2013-04-21 07:42:00,48.6,42.7,30.09,East,90,4.0,5.4,80,0.00,,,0.00,WUHU216HW,2013-04-21 12:42:00,
2013-04-21 07:47:00,48.8,42.8,30.09,ENE,68,5.6,6.3,80,0.00,,,0.00,WUHU216HW,2013-04-21 12:47:00,
2013-04-21 07:52:00,49.0,43.0,30.09,East,90,7.2,7.2,80,0.00,,,0.00,WUHU216HW,2013-04-21 12:52:00,
2013-04-21 07:57:00,49.1,42.8,30.08,East,90,8.5,8.5,79,0.00,,,0.00,WUHU216HW,2013-04-21 12:57:00,
2013-04-21 08:02:00,49.3,42.7,30.08,ESE,113,6.3,8.7,78,0.00,,,0.00,WUHU216HW,2013-04-21 13:02:00,
2013-04-21 08:06:00,49.7,43.0,30.09,ESE,113,6.5,8.7,78,0.00,,,0.00,WUHU216HW,2013-04-21 13:06:00,
2013-04-21 08:12:00,50.0,43.4,30.08,ESE,113,6.9,7.8,78,0.00,,,0.00,WUHU216HW,2013-04-21 13:12:00,
2013-04-21 08:17:00,50.0,43.4,30.08,East,90,6.3,7.8,78,0.00,,,0.00,WUHU216HW,2013-04-21 13:17:00,
2013-04-21 08:22:00,50.2,43.6,30.09,ESE,113,6.3,6.9,78,0.00,,,0.00,WUHU216HW,2013-04-21 13:22:00,
2013-04-21 08:27:00,50.6,43.9,30.09,ESE,113,4.0,6.9,78,0.00,,,0.00,WUHU216HW,2013-04-21 13:27:00,
2013-04-21 08:32:00,51.3,44.6,30.09,ESE,113,6.0,6.9,78,0.00,,,0.00,WUHU216HW,2013-04-21 13:32:00,
2013-04-21 08:37:00,52.0,45.4,30.09,East,90,6.9,8.3,78,0.00,,,0.00,WUHU216HW,2013-04-21 13:37:00,
2013-04-21 08:42:00,52.9,46.3,30.10,ESE,113,6.0,8.3,78,0.00,,,0.00,WUHU216HW,2013-04-21 13:42:00,
2013-04-21 08:47:00,53.6,46.6,30.10,East,90,6.5,8.1,77,0.00,,,0.00,WUHU216HW,2013-04-21 13:47:00,
2013-04-21 08:52:00,54.2,46.5,30.10,ESE,113,6.3,7.8,75,0.00,,,0.00,WUHU216HW,2013-04-21 13:52:00,
2013-04-21 08:57:00,54.5,46.8,30.11,East,90,5.4,8.7,75,0.00,,,0.00,WUHU216HW,2013-04-21 13:57:00,
2013-04-21 09:02:00,54.9,47.1,30.11,ESE,113,3.1,8.7,75,0.00,,,0.00,WUHU216HW,2013-04-21 14:02:00,
2013-04-21 09:07:00,55.3,47.1,30.12,East,90,3.8,6.5,74,0.00,,,0.00,WUHU216HW,2013-04-21 14:07:00,
2013-04-21 09:12:00,55.4,46.9,30.12,SE,135,2.5,6.3,73,0.00,,,0.00,WUHU216HW,2013-04-21 14:12:00,
2013-04-21 09:17:00,55.8,47.3,30.12,ESE,113,4.7,6.0,73,0.00,,,0.00,WUHU216HW,2013-04-21 14:17:00,
2013-04-21 09:22:00,56.2,47.6,30.12,ESE,113,5.4,6.5,73,0.00,,,0.00,WUHU216HW,2013-04-21 14:22:00,
2013-04-21 09:27:00,56.2,47.3,30.12,ESE,113,3.1,6.5,72,0.00,,,0.00,WUHU216HW,2013-04-21 14:27:00,
2013-04-21 09:32:00,56.2,47.3,30.12,East,90,2.5,5.4,72,0.00,,,0.00,WUHU216HW,2013-04-21 14:32:00,
2013-04-21 09:37:00,56.3,47.4,30.12,SSE,158,1.8,5.4,72,0.00,,,0.00,WUHU216HW,2013-04-21 14:37:00,
2013-04-21 09:42:00,56.9,48.2,30.12,SE,135,2.2,4.0,73,0.00,,,0.00,WUHU216HW,2013-04-21 14:42:00,
2013-04-21 09:47:00,58.0,49.0,30.12,ENE,68,4.3,5.4,72,0.00,,,0.00,WUHU216HW,2013-04-21 14:47:00,
2013-04-21 09:52:00,58.5,49.1,30.12,ESE,113,6.7,6.7,71,0.00,,,0.00,WUHU216HW,2013-04-21 14:52:00,
2013-04-21 09:57:00,59.0,49.3,30.11,ESE,113,4.9,6.9,70,0.00,,,0.00,WUHU216HW,2013-04-21 14:57:00,
2013-04-21 10:02:00,59.2,49.1,30.11,East,90,8.7,9.6,69,0.00,,,0.00,WUHU216HW,2013-04-21 15:02:00,
2013-04-21 10:07:00,59.4,48.9,30.10,East,90,7.2,9.8,68,0.00,,,0.00,WUHU216HW,2013-04-21 15:07:00,
2013-04-21 10:12:00,59.9,49.4,30.10,SE,135,10.1,13.4,68,0.00,,,0.00,WUHU216HW,2013-04-21 15:12:00,
2013-04-21 10:17:00,59.9,49.4,30.09,SE,135,11.4,13.6,68,0.00,,,0.00,WUHU216HW,2013-04-21 15:17:00,
2013-04-21 10:22:00,60.3,49.8,30.09,SE,135,12.1,13.6,68,0.00,,,0.00,WUHU216HW,2013-04-21 15:22:00,
2013-04-21 10:27:00,60.8,49.1,30.09,SSE,158,8.5,13.0,65,0.00,,,0.00,WUHU216HW,2013-04-21 15:27:00,
2013-04-21 10:32:00,61.2,49.8,30.09,SE,135,10.1,13.0,66,0.00,,,0.00,WUHU216HW,2013-04-21 15:32:00,
2013-04-21 10:37:00,61.4,49.5,30.09,SSE,158,7.8,14.3,65,0.00,,,0.00,WUHU216HW,2013-04-21 15:37:00,
2013-04-21 10:42:00,61.7,49.4,30.10,ESE,113,6.7,14.3,64,0.00,,,0.00,WUHU216HW,2013-04-21 15:42:00,
2013-04-21 10:47:00,61.7,49.9,30.10,SE,135,6.5,12.3,65,0.00,,,0.00,WUHU216HW,2013-04-21 15:47:00,
2013-04-21 10:52:00,62.3,50.0,30.10,SSE,158,6.3,10.3,64,0.00,,,0.00,WUHU216HW,2013-04-21 15:52:00,
2013-04-21 10:57:00,62.6,50.2,30.11,SSE,158,7.6,9.4,64,0.00,,,0.00,WUHU216HW,2013-04-21 15:57:00,
2013-04-21 11:02:00,62.8,49.6,30.11,SE,135,9.2,11.6,62,0.00,,,0.00,WUHU216HW,2013-04-21 16:02:00,
2013-04-21 11:07:00,63.0,50.2,30.10,SSE,158,6.5,11.6,63,0.00,,,0.00,WUHU216HW,2013-04-21 16:07:00,
2013-04-21 11:12:00,63.5,49.9,30.11,SSE,158,8.5,11.4,61,0.00,,,0.00,WUHU216HW,2013-04-21 16:12:00,
2013-04-21 11:17:00,63.7,49.1,30.10,SE,135,6.9,11.4,59,0.00,,,0.00,WUHU216HW,2013-04-21 16:17:00,
2013-04-21 11:22:00,63.7,47.6,30.10,SSE,158,18.3,18.3,56,0.00,,,0.00,WUHU216HW,2013-04-21 16:22:00,
2013-04-21 11:27:00,64.1,49.0,30.10,SSE,158,8.9,18.3,58,0.00,,,0.00,WUHU216HW,2013-04-21 16:27:00,
2013-04-21 11:32:00,64.3,47.6,30.10,SSE,158,10.1,18.3,55,0.00,,,0.00,WUHU216HW,2013-04-21 16:32:00,
2013-04-21 11:37:00,64.8,48.6,30.10,SSE,158,13.9,15.2,56,0.00,,,0.00,WUHU216HW,2013-04-21 16:37:00,
2013-04-21 11:42:00,65.2,48.1,30.10,ESE,113,9.2,15.2,54,0.00,,,0.00,WUHU216HW,2013-04-21 16:42:00,
2013-04-21 11:47:00,65.2,47.5,30.10,South,180,13.4,15.0,53,0.00,,,0.00,WUHU216HW,2013-04-21 16:47:00,
2013-04-21 11:52:00,64.8,47.7,30.09,SSE,158,13.6,13.6,54,0.00,,,0.00,WUHU216HW,2013-04-21 16:52:00,
2013-04-21 11:57:00,65.5,47.4,30.09,SE,135,14.8,17.2,52,0.00,,,0.00,WUHU216HW,2013-04-21 16:57:00,
2013-04-21 12:02:00,66.1,47.4,30.09,SSE,158,10.1,17.2,51,0.00,,,0.00,WUHU216HW,2013-04-21 17:02:00,
2013-04-21 12:07:00,66.2,47.6,30.09,SSW,203,7.8,16.3,51,0.00,,,0.00,WUHU216HW,2013-04-21 17:07:00,
2013-04-21 12:12:00,66.6,47.5,30.09,SSE,158,10.5,14.3,50,0.00,,,0.00,WUHU216HW,2013-04-21 17:12:00,
2013-04-21 12:17:00,66.8,47.1,30.09,SSW,203,10.5,15.4,49,0.00,,,0.00,WUHU216HW,2013-04-21 17:17:00,
2013-04-21 12:22:00,67.0,47.3,30.08,SSE,158,13.2,17.7,49,0.00,,,0.00,WUHU216HW,2013-04-21 17:22:00,
2013-04-21 12:27:00,67.0,46.0,30.08,SSE,158,7.4,17.7,47,0.00,,,0.00,WUHU216HW,2013-04-21 17:27:00,
2013-04-21 12:32:00,66.4,46.7,30.08,SSE,158,13.2,15.0,49,0.00,,,0.00,WUHU216HW,2013-04-21 17:32:00,
2013-04-21 12:37:00,65.9,46.8,30.08,SSE,158,12.8,13.9,50,0.00,,,0.00,WUHU216HW,2013-04-21 17:37:00,
2013-04-21 12:42:00,66.2,47.2,30.07,South,180,8.3,13.9,50,0.00,,,0.00,WUHU216HW,2013-04-21 17:42:00,
2013-04-21 12:47:00,66.8,45.9,30.07,South,180,14.3,16.1,47,0.00,,,0.00,WUHU216HW,2013-04-21 17:47:00,
2013-04-21 12:52:00,67.3,47.5,30.07,SSE,158,7.6,16.1,49,0.00,,,0.00,WUHU216HW,2013-04-21 17:52:00,
2013-04-21 12:57:00,68.0,47.6,30.07,SSE,158,7.8,15.2,48,0.00,,,0.00,WUHU216HW,2013-04-21 17:57:00,
2013-04-21 13:02:00,68.0,47.0,30.06,South,180,12.8,15.0,47,0.00,,,0.00,WUHU216HW,2013-04-21 18:02:00,
2013-04-21 13:07:00,67.9,46.8,30.06,SSW,203,8.3,12.8,47,0.00,,,0.00,WUHU216HW,2013-04-21 18:07:00,
2013-04-21 13:12:00,68.0,46.5,30.06,South,180,9.4,12.8,46,0.00,,,0.00,WUHU216HW,2013-04-21 18:12:00,
2013-04-21 13:17:00,68.6,47.5,30.06,SSE,158,8.1,11.6,47,0.00,,,0.00,WUHU216HW,2013-04-21 18:17:00,
2013-04-21 13:22:00,68.9,46.6,30.06,South,180,9.2,15.7,45,0.00,,,0.00,WUHU216HW,2013-04-21 18:22:00,
2013-04-21 13:27:00,68.8,47.1,30.05,SE,135,9.2,15.7,46,0.00,,,0.00,WUHU216HW,2013-04-21 18:27:00,
2013-04-21 13:32:00,69.3,48.2,30.05,South,180,7.2,13.4,47,0.00,,,0.00,WUHU216HW,2013-04-21 18:32:00,
2013-04-21 13:37:00,69.5,48.3,30.05,ESE,113,10.5,10.5,47,0.00,,,0.00,WUHU216HW,2013-04-21 18:37:00,
2013-04-21 13:42:00,69.5,48.3,30.05,SE,135,6.9,12.8,47,0.00,,,0.00,WUHU216HW,2013-04-21 18:42:00,
2013-04-21 13:47:00,69.3,48.2,30.05,South,180,5.4,12.8,47,0.00,,,0.00,WUHU216HW,2013-04-21 18:47:00,
2013-04-21 13:52:00,69.1,47.3,30.04,SSW,203,3.1,11.2,46,0.00,,,0.00,WUHU216HW,2013-04-21 18:52:00,
2013-04-21 13:57:00,69.5,47.7,30.04,SSE,158,11.4,12.8,46,0.00,,,0.00,WUHU216HW,2013-04-21 18:57:00,
2013-04-21 14:02:00,69.7,48.4,30.04,South,180,9.8,13.4,47,0.00,,,0.00,WUHU216HW,2013-04-21 19:02:00,
2013-04-21 14:07:00,69.7,48.4,30.04,South,180,7.6,13.4,47,0.00,,,0.00,WUHU216HW,2013-04-21 19:07:00,
2013-04-21 14:12:00,69.8,48.6,30.04,South,180,5.4,10.5,47,0.00,,,0.00,WUHU216HW,2013-04-21 19:12:00,
2013-04-21 14:17:00,69.7,49.1,30.04,SE,135,14.8,14.8,48,0.00,,,0.00,WUHU216HW,2013-04-21 19:17:00,
2013-04-21 14:22:00,69.5,48.3,30.04,SE,135,6.3,14.8,47,0.00,,,0.00,WUHU216HW,2013-04-21 19:22:00,
2013-04-21 14:27:00,69.5,48.3,30.04,SSE,158,8.5,14.8,47,0.00,,,0.00,WUHU216HW,2013-04-21 19:27:00,
2013-04-21 14:32:00,70.0,49.4,30.04,South,180,10.5,11.9,48,0.00,,,0.00,WUHU216HW,2013-04-21 19:32:00,
2013-04-21 14:37:00,70.0,48.8,30.04,SSE,158,8.5,13.4,47,0.00,,,0.00,WUHU216HW,2013-04-21 19:37:00,
2013-04-21 14:42:00,70.2,49.0,30.03,SSE,158,8.3,13.4,47,0.00,,,0.00,WUHU216HW,2013-04-21 19:42:00,
2013-04-21 14:47:00,70.2,48.3,30.03,SSE,158,8.7,11.4,46,0.00,,,0.00,WUHU216HW,2013-04-21 19:47:00,
2013-04-21 14:52:00,70.2,48.3,30.03,SSE,158,8.7,11.4,46,0.00,,,0.00,WUHU216HW,2013-04-21 19:52:00,
2013-04-21 14:57:00,69.5,48.3,30.03,SSE,158,9.4,12.8,47,0.00,,,0.00,WUHU216HW,2013-04-21 19:57:00,
2013-04-21 15:02:00,69.8,49.2,30.03,SE,135,5.4,12.8,48,0.00,,,0.00,WUHU216HW,2013-04-21 20:02:00,
2013-04-21 15:07:00,70.0,48.8,30.02,SSW,203,3.1,11.0,47,0.00,,,0.00,WUHU216HW,2013-04-21 20:07:00,
2013-04-21 15:12:00,70.0,48.2,30.02,SSE,158,5.1,7.4,46,0.00,,,0.00,WUHU216HW,2013-04-21 20:12:00,
2013-04-21 15:17:00,69.8,48.6,30.02,ESE,113,6.0,10.3,47,0.00,,,0.00,WUHU216HW,2013-04-21 20:17:00,
2013-04-21 15:22:00,70.0,48.8,30.02,East,90,8.1,10.3,47,0.00,,,0.00,WUHU216HW,2013-04-21 20:22:00,
2013-04-21 15:27:00,70.2,48.3,30.02,SE,135,8.1,12.3,46,0.00,,,0.00,WUHU216HW,2013-04-21 20:27:00,
2013-04-21 15:32:00,70.2,48.3,30.01,SSE,158,6.7,12.3,46,0.00,,,0.00,WUHU216HW,2013-04-21 20:32:00,
2013-04-21 15:37:00,70.4,47.9,30.01,SE,135,6.0,12.1,45,0.00,,,0.00,WUHU216HW,2013-04-21 20:37:00,
2013-04-21 15:42:00,70.9,49.0,30.01,SE,135,3.4,12.1,46,0.00,,,0.00,WUHU216HW,2013-04-21 20:42:00,
2013-04-21 15:47:00,71.5,48.3,30.00,SW,225,8.7,11.4,44,0.00,,,0.00,WUHU216HW,2013-04-21 20:47:00,
2013-04-21 15:52:00,71.5,48.9,30.00,SSW,203,7.6,11.4,45,0.00,,,0.00,WUHU216HW,2013-04-21 20:52:00,
2013-04-21 15:57:00,71.5,48.3,30.00,SSW,203,4.7,10.1,44,0.00,,,0.00,WUHU216HW,2013-04-21 20:57:00,
2013-04-21 16:02:00,71.6,48.4,30.00,SSE,158,6.9,12.8,44,0.00,,,0.00,WUHU216HW,2013-04-21 21:02:00,
2013-04-21 16:07:00,71.8,49.2,30.00,SSE,158,4.7,12.8,45,0.00,,,0.00,WUHU216HW,2013-04-21 21:07:00,
2013-04-21 16:12:00,71.8,49.2,30.00,SSE,158,7.6,12.8,45,0.00,,,0.00,WUHU216HW,2013-04-21 21:12:00,
2013-04-21 16:17:00,71.8,49.8,29.99,SE,135,11.0,12.8,46,0.00,,,0.00,WUHU216HW,2013-04-21 21:17:00,
2013-04-21 16:22:00,71.5,48.3,29.99,ESE,113,4.0,11.0,44,0.00,,,0.00,WUHU216HW,2013-04-21 21:22:00,
2013-04-21 16:27:00,72.0,50.0,29.99,SE,135,5.4,11.0,46,0.00,,,0.00,WUHU216HW,2013-04-21 21:27:00,
2013-04-21 16:32:00,72.2,49.5,29.99,ENE,68,9.2,10.7,45,0.00,,,0.00,WUHU216HW,2013-04-21 21:32:00,
2013-04-21 16:37:00,71.6,49.1,29.99,SE,135,5.4,10.7,45,0.00,,,0.00,WUHU216HW,2013-04-21 21:37:00,
2013-04-21 16:42:00,71.6,49.1,29.99,SE,135,3.4,11.2,45,0.00,,,0.00,WUHU216HW,2013-04-21 21:42:00,
2013-04-21 16:47:00,71.6,48.4,29.99,ESE,113,6.9,11.2,44,0.00,,,0.00,WUHU216HW,2013-04-21 21:47:00,
2013-04-21 16:52:00,71.3,48.2,29.99,ESE,113,4.3,8.7,44,0.00,,,0.00,WUHU216HW,2013-04-21 21:52:00,
2013-04-21 16:57:00,71.5,48.3,29.99,SE,135,9.2,9.2,44,0.00,,,0.00,WUHU216HW,2013-04-21 21:57:00,
2013-04-21 17:02:00,71.6,48.4,29.99,SSE,158,8.5,10.7,44,0.00,,,0.00,WUHU216HW,2013-04-21 22:02:00,
2013-04-21 17:07:00,71.6,49.1,29.99,SE,135,7.6,10.7,45,0.00,,,0.00,WUHU216HW,2013-04-21 22:07:00,
2013-04-21 17:12:00,71.6,48.4,29.99,East,90,3.4,8.7,44,0.00,,,0.00,WUHU216HW,2013-04-21 22:12:00,
2013-04-21 17:17:00,71.8,48.6,29.99,ESE,113,6.9,9.4,44,0.00,,,0.00,WUHU216HW,2013-04-21 22:17:00,
2013-04-21 17:22:00,72.0,48.8,29.99,SE,135,9.6,9.6,44,0.00,,,0.00,WUHU216HW,2013-04-21 22:22:00,
2013-04-21 17:27:00,71.8,49.2,29.99,ESE,113,6.3,9.6,45,0.00,,,0.00,WUHU216HW,2013-04-21 22:27:00,
2013-04-21 17:32:00,71.8,49.2,29.99,SSE,158,5.6,9.6,45,0.00,,,0.00,WUHU216HW,2013-04-21 22:32:00,
2013-04-21 17:37:00,71.6,48.4,29.98,SSE,158,6.3,10.3,44,0.00,,,0.00,WUHU216HW,2013-04-21 22:37:00,
2013-04-21 17:42:00,71.8,49.2,29.98,SE,135,5.4,10.3,45,0.00,,,0.00,WUHU216HW,2013-04-21 22:42:00,
2013-04-21 17:47:00,71.8,49.2,29.98,SE,135,5.4,7.8,45,0.00,,,0.00,WUHU216HW,2013-04-21 22:47:00,
2013-04-21 17:52:00,72.0,48.8,29.98,ESE,113,8.3,8.3,44,0.00,,,0.00,WUHU216HW,2013-04-21 22:52:00,
2013-04-21 17:57:00,71.6,48.4,29.98,SE,135,5.6,11.2,44,0.00,,,0.00,WUHU216HW,2013-04-21 22:57:00,
2013-04-21 18:02:00,71.6,48.4,29.98,SE,135,7.6,12.5,44,0.00,,,0.00,WUHU216HW,2013-04-21 23:02:00,
2013-04-21 18:07:00,71.5,48.3,29.98,ESE,113,4.7,12.5,44,0.00,,,0.00,WUHU216HW,2013-04-21 23:07:00,
2013-04-21 18:12:00,71.3,47.5,29.98,SE,135,7.8,9.6,43,0.00,,,0.00,WUHU216HW,2013-04-21 23:12:00,
2013-04-21 18:17:00,71.3,48.2,29.98,SE,135,3.6,7.8,44,0.00,,,0.00,WUHU216HW,2013-04-21 23:17:00,
2013-04-21 18:22:00,71.5,48.3,29.98,SE,135,4.7,10.5,44,0.00,,,0.00,WUHU216HW,2013-04-21 23:22:00,
2013-04-21 18:27:00,71.3,48.2,29.98,SSE,158,6.0,10.5,44,0.00,,,0.00,WUHU216HW,2013-04-21 23:27:00,
2013-04-21 18:32:00,71.1,48.0,29.98,SE,135,5.4,7.8,44,0.00,,,0.00,WUHU216HW,2013-04-21 23:32:00,
2013-04-21 18:37:00,70.7,47.6,29.98,ESE,113,7.4,9.4,44,0.00,,,0.00,WUHU216HW,2013-04-21 23:37:00,
2013-04-21 18:42:00,70.6,48.1,29.98,SE,135,4.0,9.4,45,0.00,,,0.00,WUHU216HW,2013-04-21 23:42:00,
2013-04-21 18:47:00,70.6,47.5,29.98,ESE,113,6.3,7.2,44,0.00,,,0.00,WUHU216HW,2013-04-21 23:47:00,
2013-04-21 18:52:00,70.4,47.4,29.98,ESE,113,5.1,8.1,44,0.00,,,0.00,WUHU216HW,2013-04-21 23:52:00,
2013-04-21 18:57:00,70.0,47.0,29.98,ESE,113,8.5,8.5,44,0.00,,,0.00,WUHU216HW,2013-04-21 23:57:00,
2013-04-21 19:02:00,69.8,47.4,29.98,ESE,113,4.0,8.9,45,0.00,,,0.00,WUHU216HW,2013-04-22 00:02:00,
2013-04-21 19:07:00,69.8,47.4,29.98,SE,135,2.7,8.9,45,0.00,,,0.00,WUHU216HW,2013-04-22 00:07:00,
2013-04-21 19:12:00,69.7,47.3,29.99,ESE,113,2.7,6.7,45,0.00,,,0.00,WUHU216HW,2013-04-22 00:12:00,
2013-04-21 19:17:00,69.5,47.7,29.99,East,90,2.9,6.7,46,0.00,,,0.00,WUHU216HW,2013-04-22 00:17:00,
2013-04-21 19:22:00,69.5,47.7,29.99,SE,135,2.0,4.0,46,0.00,,,0.00,WUHU216HW,2013-04-22 00:22:00,
2013-04-21 19:27:00,69.3,47.5,29.99,ESE,113,4.3,4.3,46,0.00,,,0.00,WUHU216HW,2013-04-22 00:27:00,
2013-04-21 19:32:00,68.9,47.8,29.99,SE,135,2.7,4.3,47,0.00,,,0.00,WUHU216HW,2013-04-22 00:32:00,
2013-04-21 19:37:00,68.8,47.1,29.99,ESE,113,2.5,4.3,46,0.00,,,0.00,WUHU216HW,2013-04-22 00:37:00,
2013-04-21 19:42:00,68.6,46.9,29.99,East,90,2.9,3.4,46,0.00,,,0.00,WUHU216HW,2013-04-22 00:42:00,
2013-04-21 19:47:00,68.2,46.5,29.99,ESE,113,3.1,4.5,46,0.00,,,0.00,WUHU216HW,2013-04-22 00:47:00,
2013-04-21 19:52:00,67.9,46.8,29.99,ESE,113,2.5,4.5,47,0.00,,,0.00,WUHU216HW,2013-04-22 00:52:00,
2013-04-21 19:57:00,67.7,46.7,29.99,East,90,2.0,2.9,47,0.00,,,0.00,WUHU216HW,2013-04-22 00:57:00,
2013-04-21 20:02:00,67.3,46.4,29.99,ENE,68,1.6,2.5,47,0.00,,,0.00,WUHU216HW,2013-04-22 01:02:00,
2013-04-21 20:07:00,67.3,47.0,29.99,ENE,68,1.6,2.0,48,0.00,,,0.00,WUHU216HW,2013-04-22 01:07:00,
2013-04-21 20:12:00,67.3,47.0,29.99,ENE,68,1.3,1.8,48,0.00,,,0.00,WUHU216HW,2013-04-22 01:12:00,
2013-04-21 20:17:00,67.1,46.8,29.99,ENE,68,1.3,1.8,48,0.00,,,0.00,WUHU216HW,2013-04-22 01:17:00,
2013-04-21 20:22:00,67.0,47.3,29.99,ENE,68,1.1,1.8,49,0.00,,,0.00,WUHU216HW,2013-04-22 01:22:00,
2013-04-21 20:27:00,66.6,46.9,30.00,ENE,68,1.3,1.3,49,0.00,,,0.00,WUHU216HW,2013-04-22 01:27:00,
2013-04-21 20:32:00,66.2,47.2,30.00,ENE,68,1.1,1.6,50,0.00,,,0.00,WUHU216HW,2013-04-22 01:32:00,
2013-04-21 20:37:00,65.9,46.8,30.00,ENE,68,1.1,1.6,50,0.00,,,0.00,WUHU216HW,2013-04-22 01:37:00,
2013-04-21 20:42:00,65.5,46.9,30.00,East,90,1.1,1.6,51,0.00,,,0.00,WUHU216HW,2013-04-22 01:42:00,
2013-04-21 20:47:00,64.8,46.2,30.00,ENE,68,1.1,1.6,51,0.00,,,0.00,WUHU216HW,2013-04-22 01:47:00,
2013-04-21 20:52:00,64.8,46.2,30.00,ENE,68,1.1,1.6,51,0.00,,,0.00,WUHU216HW,2013-04-22 01:52:00,
2013-04-21 20:57:00,64.4,46.4,30.01,East,90,1.3,1.8,52,0.00,,,0.00,WUHU216HW,2013-04-22 01:57:00,
2013-04-21 21:02:00,63.9,46.4,30.01,East,90,1.6,1.8,53,0.00,,,0.00,WUHU216HW,2013-04-22 02:02:00,
2013-04-21 21:07:00,63.4,45.8,30.01,East,90,1.3,2.0,53,0.00,,,0.00,WUHU216HW,2013-04-22 02:07:00,
2013-04-21 21:12:00,63.0,46.0,30.01,East,90,1.6,2.0,54,0.00,,,0.00,WUHU216HW,2013-04-22 02:12:00,
2013-04-21 21:17:00,62.8,45.8,30.01,East,90,0.9,1.8,54,0.00,,,0.00,WUHU216HW,2013-04-22 02:17:00,
2013-04-21 21:22:00,62.6,45.7,30.01,East,90,0.0,1.6,54,0.00,,,0.00,WUHU216HW,2013-04-22 02:22:00,
2013-04-21 21:27:00,62.8,45.8,30.01,SW,225,0.0,0.9,54,0.00,,,0.00,WUHU216HW,2013-04-22 02:27:00,
2013-04-21 21:32:00,62.3,46.4,30.01,SW,225,3.4,4.7,56,0.00,,,0.00,WUHU216HW,2013-04-22 02:32:00,
2013-04-21 21:37:00,61.4,47.0,30.02,WSW,248,0.7,4.7,59,0.00,,,0.00,WUHU216HW,2013-04-22 02:37:00,
2013-04-21 21:42:00,61.0,46.6,30.02,WSW,248,1.1,3.4,59,0.00,,,0.00,WUHU216HW,2013-04-22 02:42:00,
2013-04-21 21:47:00,60.5,46.6,30.02,NNE,23,1.6,4.0,60,0.00,,,0.00,WUHU216HW,2013-04-22 02:47:00,
2013-04-21 21:52:00,60.1,47.1,30.02,NE,45,2.7,4.0,62,0.00,,,0.00,WUHU216HW,2013-04-22 02:52:00,
2013-04-21 21:57:00,59.8,46.4,30.03,NNE,23,1.1,4.0,61,0.00,,,0.00,WUHU216HW,2013-04-22 02:57:00,
2013-04-21 22:02:00,59.9,46.5,30.03,NE,45,0.0,2.5,61,0.00,,,0.00,WUHU216HW,2013-04-22 03:02:00,
2013-04-21 22:07:00,60.5,46.6,30.03,NW,315,0.0,1.1,60,0.00,,,0.00,WUHU216HW,2013-04-22 03:07:00,
2013-04-21 22:12:00,61.0,47.2,30.03,North,0,0.0,0.2,60,0.00,,,0.00,WUHU216HW,2013-04-22 03:12:00,
2013-04-21 22:17:00,61.2,47.4,30.03,ENE,68,1.1,1.8,60,0.00,,,0.00,WUHU216HW,2013-04-22 03:17:00,
2013-04-21 22:22:00,61.0,47.2,30.03,ENE,68,1.3,1.8,60,0.00,,,0.00,WUHU216HW,2013-04-22 03:22:00,
2013-04-21 22:27:00,60.8,47.0,30.03,NE,45,2.0,2.0,60,0.00,,,0.00,WUHU216HW,2013-04-22 03:27:00,
2013-04-21 22:32:00,60.7,47.3,30.03,North,0,0.0,2.0,61,0.00,,,0.00,WUHU216HW,2013-04-22 03:32:00,
2013-04-21 22:37:00,60.3,46.9,30.04,NE,45,1.1,2.0,61,0.00,,,0.00,WUHU216HW,2013-04-22 03:37:00,
2013-04-21 22:42:00,60.1,46.7,30.04,NE,45,0.0,1.6,61,0.00,,,0.00,WUHU216HW,2013-04-22 03:42:00,
2013-04-21 22:47:00,60.1,47.1,30.04,NE,45,1.6,1.6,62,0.00,,,0.00,WUHU216HW,2013-04-22 03:47:00,
2013-04-21 22:52:00,59.9,46.9,30.04,NE,45,1.3,1.6,62,0.00,,,0.00,WUHU216HW,2013-04-22 03:52:00,
2013-04-21 22:57:00,59.9,46.9,30.03,NE,45,1.6,1.6,62,0.00,,,0.00,WUHU216HW,2013-04-22 03:57:00,
2013-04-21 23:01:00,59.9,46.9,30.03,NE,45,1.3,1.6,62,0.00,,,0.00,WUHU216HW,2013-04-22 04:01:00,
2013-04-21 23:06:00,59.8,46.7,30.03,ENE,68,1.1,1.8,62,0.00,,,0.00,WUHU216HW,2013-04-22 04:06:00,
2013-04-21 23:11:00,59.8,46.7,30.03,ENE,68,1.1,1.8,62,0.00,,,0.00,WUHU216HW,2013-04-22 04:11:00,
2013-04-21 23:16:00,59.4,46.4,30.03,ENE,68,1.1,1.6,62,0.00,,,0.00,WUHU216HW,2013-04-22 04:16:00,
2013-04-21 23:21:00,59.0,46.0,30.03,ENE,68,1.3,1.6,62,0.00,,,0.00,WUHU216HW,2013-04-22 04:21:00,
2013-04-21 23:26:00,58.9,46.3,30.03,NE,45,0.0,1.8,63,0.00,,,0.00,WUHU216HW,2013-04-22 04:26:00,
2013-04-21 23:31:00,58.0,45.8,30.03,NNE,23,0.4,1.8,64,0.00,,,0.00,WUHU216HW,2013-04-22 04:31:00,
2013-04-21 23:36:00,57.1,45.8,30.03,NE,45,2.0,2.0,66,0.00,,,0.00,WUHU216HW,2013-04-22 04:36:00,
2013-04-21 23:41:00,56.9,45.6,30.03,NE,45,1.3,2.0,66,0.00,,,0.00,WUHU216HW,2013-04-22 04:41:00,
2013-04-21 23:46:00,56.9,45.6,30.03,ENE,68,0.9,2.0,66,0.00,,,0.00,WUHU216HW,2013-04-22 04:46:00,
2013-04-21 23:51:00,57.2,45.5,30.03,NE,45,0.7,1.6,65,0.00,,,0.00,WUHU216HW,2013-04-22 04:51:00,
2013-04-21 23:56:00,57.2,45.5,30.03,NE,45,0.7,1.1,65,0.00,,,0.00,WUHU216HW,2013-04-22 04:56:00,